Regional Weather Roundup
Issued by NWS

Home | Current Version | Previous Version | Text Only | Print | Product List | Glossary Off
Versions: 1 2 3 4 5 6 7 8 9 10 11 12 13 14 15 16 17 18 19 20 21 22 23 24 25 26 27 28 29 30 31 32 33 34 35 36 37 38 39 40 41 42 43 44 45 46 47 48 49 50

345
ASUS45 KBOU 302307
RWRCO

WEATHER ROUNDUP FOR COLORADO
NATIONAL WEATHER SERVICE DENVER/BOULDER CO
500 PM MDT THU MAR 30 2017

NOTE: "FAIR" INDICATES FEW OR NO CLOUDS BELOW 12000 FEET WITH NO
SIGNIFICANT WEATHER AND/OR OBSTRUCTIONS TO VISIBILITY.

COZ001>005-013-030-031-310000-
...NORTHWEST COLORADO...

CITY           SKY/WX    TMP DP  RH WIND       PRES   REMARKS
CRAIG          CLOUDY    61  25  25 SW14      29.62F
HAYDEN         FAIR      57  25  28 CALM      29.64F
MEEKER         CLOUDY    60  24  25 S15       29.62F
MOUNT WERNER   NOT AVBL
STEAMBOAT SPGS FAIR      57  29  34 CALM      29.66F
WALDEN         NOT AVBL
$$

COZ006>008-011-310000-
...WEST CENTRAL VALLEYS...

CITY           SKY/WX    TMP DP  RH WIND       PRES   REMARKS
GRAND JUNCTION PTSUNNY   68  26  20 CALM      29.52F
MONTROSE       PTSUNNY   67  23  19 SW16      29.60F
EAGLE          PTSUNNY   59  27  29 SW14G22   29.67F
RIFLE          FAIR      65  25  22 NW3       29.59F
DELTA          PTSUNNY   68  24  18 CALM      29.58F
NUCLA          FAIR      64  25  22 S14G20    29.66F
$$

COZ017>023-064>068-310000-
...SOUTHWEST COLORADO...

CITY           SKY/WX    TMP DP  RH WIND       PRES   REMARKS
DURANGO        FAIR      60  19  20 S5        29.73F
CORTEZ         PTSUNNY   65  22  19 S16G26    29.66F
PAGOSA SPRINGS FAIR      56  17  21 SW9G18    29.81F
TELLURIDE      CLOUDY    50  23  35 S13       29.79F
WOLF CREEK PAS FAIR      32  21  64 S22G29    29.97F WCI  19
$$

COZ009-010-012-014-032>034-037-058>063-310000-
...CENTRAL COLORADO...

CITY           SKY/WX    TMP DP  RH WIND       PRES   REMARKS
ASPEN          FAIR      54  22  28 S6        29.70F
BUENA VISTA    PTSUNNY   57  16  19 S9        29.72F
COPPER MTN     FLURRIES  34  25  69 SW7       29.91F WCI  28
BERTHOUD PASS  CLOUDY    30  19  64 SW6       29.92F WCI  24
COTTONWOOD PAS FAIR      52  14  22 SW16G25   29.81F
GUNNISON       FAIR      54  26  34 NW9       29.72F
KREMMLING      CLOUDY    63  23  22 S9        29.70F
LEADVILLE      FAIR      44  16  32 SW9       29.80F
MONARCH PASS   PTSUNNY   34  23  64 SW20G26   30.01F WCI  22
SALIDA         PTSUNNY   62  23  23 S15G24    29.80S
SUNLIGHT       FAIR      39  21  48 S9G20     29.85F
WILKERSON PASS CLOUDY    37  21  52 SW6       29.91F
$$

COZ069>075-310000-
...SAN LUIS VALLEY/SANGRE DE CRISTO MOUNTAINS...

CITY           SKY/WX    TMP DP  RH WIND       PRES   REMARKS
ALAMOSA        FAIR      58  22  24 SW24G33   29.74F
LA VETA PASS   NOT AVBL
SAGUACHE       CLOUDY    55  23  28 SE8       29.75F
$$

COZ035-036-038>040-310000-
...NORTHERN COLORADO FRONT RANGE...

CITY           SKY/WX    TMP DP  RH WIND       PRES   REMARKS
DENVER INTL AP PTSUNNY   64  29  26 E10       29.64F
DMNS CITY PARK   N/A     64  26  24 SW2G15    29.64R
AURORA         PTSUNNY   62  30  29 E13       29.65S
FRONT RANGE AP PTSUNNY   66  30  26 E10G29    29.66F
ERIE MUNI ARPT FAIR      66  24  20 SE8         N/A
BOULDER MUN AP PTSUNNY   64  28  25 S5        29.63S
CENTENNIAL     PTSUNNY   61  30  31 S8        29.66S
BROOMFIELD     PTSUNNY   64  27  24 SW7G14    29.66S
FORT COLLINS   FAIR      65  32  29 NE9       29.64F
LONGMONT       CLOUDY    67  30  25 N6        29.64F
$$

COZ041-046-047-076>085-087-088-310000-
...PIKES PEAK/PALMER DIVIDE AND SOUTHERN FOOTHILLS...

CITY           SKY/WX    TMP DP  RH WIND       PRES   REMARKS
COLO. SPRINGS  PTSUNNY   61  27  27 SE18      29.70F
A. F. ACADEMY  MOSUNNY   59  27  29 S15       29.70F
SCHRIEVER AFB  FAIR      60  26  27 SE17G24   29.71F
ELLICOTT       FAIR     N/A N/A N/A S14G22    29.69F
FALCON         FAIR      59  25  26 S17G23    29.74S
FORT CARSON    PTSUNNY   62  29  29 SE15      29.67F
LIMON          FAIR      63  30  28 S17G25    29.68F
MONUMENT HILL  FAIR      55  30  38 S18G25    29.73F
TRINIDAD       FAIR      67  26  21 S10       29.68F
$$

COZ042>045-048>051-090-091-310000-
...NORTHEAST COLORADO...

CITY           SKY/WX    TMP DP  RH WIND       PRES   REMARKS
GREELEY ARPT   FAIR      65  33  30 E8        29.64F
AKRON          FAIR      63  34  33 E9        29.66F
BURLINGTON     FAIR      61  41  47 SE7       29.70F
WRAY           FAIR      61  36  39 E6        29.69F
STERLING       FAIR      63  37  39 CALM      29.64F
HOLYOKE        FAIR      61  39  44 SE6       29.69F
FORT MORGAN    FAIR      67  28  23 E8        29.65F
$$

COZ086-089-092>099-310000-
...SOUTHEAST COLORADO...

CITY           SKY/WX    TMP DP  RH WIND       PRES   REMARKS
PUEBLO         FAIR      68  30  24 SE20      29.62F
LA JUNTA       FAIR      68  30  24 S14       29.65F
LAMAR          FAIR      69  32  25 SE10      29.66F
SPRINGFIELD      N/A     65  34  31 SE16      29.69F
$$




USA.gov is the U.S. government's official web portal to all federal, state and local government web resources and services.